When you browse on this site, cookies collect data to enhance your experience and personalize the content and advertising you see.
Visit our Privacy Policy to learn more. By continuing to use the site, you agree to this use of cookies and data.
  • En España
  • Lista de países
  • Para 7 días
  • Temperatura del agua
  • Mapa Satelital
  • El tiempo en el mapa
  • Informadores
  • user-avatar
    Iniciar sesión

    Tiempo cada hora Borisovka

    Hoy, 15 Julio, Lunes

    Tiempo Temperatura Precipitaciones Viento Presión Humedad
    00:00 +13°C° 0 mm 1 mps 742 mmHg 90%
    01:00 +12°C° 0 mm 1 mps 741 mmHg 91%
    02:00 +12°C° 0 mm 1 mps 742 mmHg 90%
    03:00 +12°C° 0 mm 1 mps 742 mmHg 90%
    04:00 +12°C° 0 mm 1 mps 742 mmHg 90%
    05:00 +11°C° 0 mm 0 mps 741 mmHg 91%
    06:00 +12°C° 0 mm 0 mps 742 mmHg 86%
    07:00 +15°C° 0 mm 1 mps 742 mmHg 81%
    08:00 +18°C° 0 mm 1 mps 742 mmHg 77%
    09:00 +18°C° 0.4 mm 1 mps 742 mmHg 76%
    10:00 +19°C° 0.4 mm 1 mps 741 mmHg 75%
    11:00 +19°C° 0.4 mm 1 mps 741 mmHg 75%
    12:00 +20°C° 0.5 mm 1 mps 741 mmHg 73%
    13:00 +21°C° 0.5 mm 1 mps 741 mmHg 70%
    14:00 +21°C° 0 mm 1 mps 742 mmHg 65%
    15:00 +21°C° 0.4 mm 1 mps 742 mmHg 67%
    16:00 +20°C° 0.4 mm 1 mps 742 mmHg 70%
    17:00 +20°C° 0.4 mm 1 mps 741 mmHg 73%
    18:00 +19°C° 0 mm 1 mps 741 mmHg 78%
    19:00 +16°C° 0 mm 1 mps 741 mmHg 84%
    20:00 +14°C° 0 mm 1 mps 741 mmHg 89%
    21:00 +14°C° 0 mm 1 mps 741 mmHg 90%
    22:00 +13°C° 0 mm 1 mps 741 mmHg 92%
    23:00 +12°C° 0 mm 1 mps 741 mmHg 93%

    Mañana, 16 Julio, Martes

    Tiempo Temperatura Precipitaciones Viento Presión Humedad
    00:00 +12°C° 0 mm 1 mps 741 mmHg 94%
    01:00 +11°C° 0 mm 1 mps 741 mmHg 95%
    02:00 +11°C° 0 mm 1 mps 741 mmHg 95%
    03:00 +11°C° 0 mm 1 mps 741 mmHg 96%
    04:00 +11°C° 0 mm 1 mps 741 mmHg 96%
    05:00 +12°C° 0 mm 1 mps 741 mmHg 97%
    06:00 +13°C° 0 mm 1 mps 741 mmHg 93%
    07:00 +15°C° 0 mm 1 mps 741 mmHg 88%
    08:00 +16°C° 0 mm 1 mps 741 mmHg 84%
    09:00 +18°C° 0.1 mm 1 mps 741 mmHg 81%
    10:00 +20°C° 0.1 mm 1 mps 740 mmHg 77%
    11:00 +21°C° 0.1 mm 1 mps 740 mmHg 74%
    12:00 +21°C° 0.4 mm 1 mps 740 mmHg 74%
    13:00 +21°C° 0.4 mm 1 mps 740 mmHg 74%
    14:00 +22°C° 0.4 mm 1 mps 739 mmHg 73%
    15:00 +21°C° 0.6 mm 1 mps 739 mmHg 76%
    16:00 +21°C° 0.6 mm 1 mps 739 mmHg 80%
    17:00 +21°C° 0.6 mm 1 mps 739 mmHg 83%
    18:00 +19°C° 0.3 mm 1 mps 739 mmHg 86%
    19:00 +17°C° 0.3 mm 2 mps 738 mmHg 90%
    20:00 +16°C° 0.3 mm 2 mps 738 mmHg 94%
    21:00 +15°C° 0.2 mm 2 mps 738 mmHg 94%
    22:00 +14°C° 0.2 mm 2 mps 738 mmHg 95%
    23:00 +14°C° 0.2 mm 2 mps 738 mmHg 96%

    Pasado mañana, 17 Julio, Miércoles

    Tiempo Temperatura Precipitaciones Viento Presión Humedad
    00:00 +14°C° 0.2 mm 2 mps 738 mmHg 96%
    01:00 +13°C° 0.2 mm 1 mps 738 mmHg 96%
    02:00 +13°C° 0.2 mm 1 mps 738 mmHg 96%
    03:00 +13°C° 0.4 mm 1 mps 737 mmHg 96%
    04:00 +14°C° 0.4 mm 1 mps 737 mmHg 96%
    05:00 +14°C° 0.4 mm 1 mps 737 mmHg 97%
    06:00 +14°C° 0.2 mm 1 mps 737 mmHg 95%
    07:00 +15°C° 0.2 mm 1 mps 737 mmHg 94%
    08:00 +15°C° 0.2 mm 1 mps 737 mmHg 93%
    09:00 +16°C° 0.3 mm 1 mps 737 mmHg 92%
    10:00 +16°C° 0.3 mm 1 mps 737 mmHg 90%
    11:00 +17°C° 0.3 mm 2 mps 736 mmHg 89%
    12:00 +17°C° 0.5 mm 2 mps 736 mmHg 87%
    13:00 +17°C° 0.5 mm 2 mps 736 mmHg 84%
    14:00 +18°C° 0.5 mm 2 mps 736 mmHg 82%
    15:00 +19°C° 0.5 mm 1 mps 736 mmHg 80%
    16:00 +20°C° 0.5 mm 1 mps 736 mmHg 77%
    17:00 +18°C° 0.5 mm 0 mps 736 mmHg 75%
    18:00 +18°C° 0.3 mm 1 mps 735 mmHg 86%
    19:00 +15°C° 0.3 mm 0 mps 735 mmHg 88%
    20:00 +14°C° 0.3 mm 0 mps 735 mmHg 91%
    21:00 +14°C° 0 mm 1 mps 735 mmHg 92%
    22:00 +14°C° 0 mm 1 mps 735 mmHg 93%
    23:00 +13°C° 0 mm 1 mps 735 mmHg 94%

    18 Julio, Jueves

    Tiempo Temperatura Precipitaciones Viento Presión Humedad
    00:00 +13°C° 0 mm 1 mps 735 mmHg 95%
    01:00 +12°C° 0 mm 1 mps 735 mmHg 95%
    02:00 +12°C° 0 mm 1 mps 735 mmHg 96%
    03:00 +12°C° 0 mm 1 mps 735 mmHg 97%
    04:00 +12°C° 0 mm 1 mps 735 mmHg 97%
    05:00 +12°C° 0 mm 2 mps 734 mmHg 98%
    06:00 +13°C° 0.1 mm 2 mps 734 mmHg 95%
    07:00 +15°C° 0.1 mm 2 mps 734 mmHg 92%
    08:00 +16°C° 0.1 mm 2 mps 734 mmHg 89%
    09:00 +17°C° 1.1 mm 2 mps 734 mmHg 88%
    10:00 +17°C° 1.1 mm 3 mps 735 mmHg 87%
    11:00 +18°C° 1.1 mm 3 mps 735 mmHg 86%
    12:00 +18°C° 0.9 mm 4 mps 735 mmHg 86%
    13:00 +18°C° 0.9 mm 4 mps 735 mmHg 86%
    14:00 +18°C° 0.9 mm 4 mps 735 mmHg 85%
    15:00 +17°C° 0.2 mm 4 mps 735 mmHg 85%
    16:00 +17°C° 0.2 mm 3 mps 735 mmHg 85%
    17:00 +16°C° 0.2 mm 3 mps 735 mmHg 86%
    18:00 +16°C° 0 mm 3 mps 735 mmHg 89%
    19:00 +15°C° 0 mm 2 mps 735 mmHg 93%
    20:00 +14°C° 0 mm 2 mps 735 mmHg 97%
    21:00 +13°C° 0 mm 1 mps 735 mmHg 97%
    22:00 +13°C° 0 mm 1 mps 735 mmHg 98%
    23:00 +13°C° 0 mm 1 mps 736 mmHg 98%

    19 Julio, Viernes

    Tiempo Temperatura Precipitaciones Viento Presión Humedad
    00:00 +12°C° 0 mm 1 mps 736 mmHg 98%
    01:00 +12°C° 0 mm 1 mps 736 mmHg 98%
    02:00 +12°C° 0 mm 1 mps 736 mmHg 98%
    03:00 +13°C° 0 mm 1 mps 736 mmHg 98%
    04:00 +13°C° 0 mm 1 mps 736 mmHg 98%
    05:00 +14°C° 0 mm 1 mps 736 mmHg 97%
    06:00 +15°C° 0.1 mm 2 mps 737 mmHg 95%
    07:00 +16°C° 0.1 mm 2 mps 737 mmHg 94%
    08:00 +17°C° 0.1 mm 2 mps 737 mmHg 92%
    09:00 +16°C° 1.1 mm 3 mps 737 mmHg 93%
    10:00 +16°C° 1.1 mm 3 mps 738 mmHg 94%
    11:00 +16°C° 1.1 mm 3 mps 738 mmHg 95%
    12:00 +14°C° 0.7 mm 3 mps 738 mmHg 96%
    13:00 +14°C° 0.7 mm 4 mps 738 mmHg 96%
    14:00 +13°C° 0.7 mm 4 mps 738 mmHg 97%
    15:00 +14°C° 0.1 mm 4 mps 739 mmHg 97%
    16:00 +14°C° 0.1 mm 4 mps 739 mmHg 97%
    17:00 +14°C° 0.1 mm 4 mps 739 mmHg 97%
    18:00 +14°C° 0 mm 4 mps 740 mmHg 97%
    19:00 +14°C° 0 mm 4 mps 740 mmHg 97%
    20:00 +14°C° 0 mm 4 mps 740 mmHg 96%
    21:00 +14°C° 0 mm 4 mps 741 mmHg 96%
    22:00 +14°C° 0 mm 4 mps 741 mmHg 96%
    23:00 +15°C° 0 mm 4 mps 741 mmHg 96%

    20 Julio, Sábado

    Tiempo Temperatura Precipitaciones Viento Presión Humedad
    00:00 +14°C° 0 mm 4 mps 742 mmHg 97%
    01:00 +14°C° 0 mm 4 mps 742 mmHg 97%
    02:00 +14°C° 0 mm 3 mps 742 mmHg 97%
    03:00 +14°C° 0 mm 3 mps 743 mmHg 97%
    04:00 +14°C° 0 mm 3 mps 743 mmHg 97%
    05:00 +14°C° 0 mm 3 mps 743 mmHg 97%
    06:00 +14°C° 0 mm 3 mps 743 mmHg 95%
    07:00 +16°C° 0 mm 3 mps 744 mmHg 93%
    08:00 +16°C° 0 mm 3 mps 744 mmHg 92%
    09:00 +17°C° 0 mm 3 mps 744 mmHg 88%
    10:00 +18°C° 0 mm 3 mps 745 mmHg 84%
    11:00 +19°C° 0 mm 3 mps 745 mmHg 79%
    12:00 +19°C° 0.1 mm 3 mps 745 mmHg 78%
    13:00 +20°C° 0.1 mm 3 mps 745 mmHg 77%
    14:00 +20°C° 0.1 mm 3 mps 745 mmHg 76%
    15:00 +20°C° 0.5 mm 3 mps 746 mmHg 78%
    16:00 +21°C° 0.5 mm 3 mps 746 mmHg 80%
    17:00 +21°C° 0.5 mm 3 mps 746 mmHg 81%
    18:00 +20°C° 0.3 mm 3 mps 746 mmHg 86%
    19:00 +18°C° 0.3 mm 2 mps 746 mmHg 90%
    20:00 +17°C° 0.3 mm 2 mps 746 mmHg 94%
    21:00 +16°C° 0 mm 2 mps 746 mmHg 95%
    22:00 +16°C° 0 mm 2 mps 746 mmHg 95%
    23:00 +15°C° 0 mm 2 mps 747 mmHg 96%
    Mostrar más